| time (UTC) | temp F | wind direction | speed MPH | gust MPH | rain 1hr in | rain 24hr in | rain mn in | humidity % | barometer mb |
| 20260903122546 | 73 | 258 | 17.0 | 28.0 | 0.00 | 0.12 | 0.02 | 80 | |
| 20260903121530 | 73 | 235 | 17.0 | 29.0 | 0.00 | 0.12 | 0.02 | 81 | |
| 20260903120604 | 72 | 262 | 19.0 | 30.0 | 0.00 | 0.12 | 0.02 | 82 | |
| 20260903115524 | 72 | 286 | 17.0 | 27.0 | 0.00 | 0.12 | 0.02 | 83 | |
| 20260903114537 | 72 | 277 | 18.0 | 29.0 | 0.00 | 0.12 | 0.02 | 82 | |
| 20260903113540 | 72 | 252 | 14.0 | 26.0 | 0.00 | 0.12 | 0.02 | 84 | |
| 20260903112524 | 71 | 283 | 20.0 | 28.0 | 0.00 | 0.12 | 0.02 | 84 | |
| 20260903111538 | 71 | 259 | 16.0 | 28.0 | 0.00 | 0.12 | 0.02 | 86 | |
| 20260903110521 | 70 | 248 | 14.0 | 25.0 | 0.12 | 0.12 | 0.02 | 87 | |
| 20260903105554 | 70 | 274 | 16.0 | 27.0 | 0.12 | 0.12 | 0.02 | 89 | |
| 20260903104542 | 69 | 239 | 15.0 | 27.0 | 0.12 | 0.12 | 0.02 | 89 | |
| 20260903103526 | 68 | 233 | 17.0 | 31.0 | 0.12 | 0.12 | 0.02 | 89 | |
| 20260903102540 | 68 | 247 | 20.0 | 27.0 | 0.12 | 0.12 | 0.02 | 89 | |
| 20260903101524 | 69 | 240 | 14.0 | 23.0 | 0.12 | 0.12 | 0.02 | 88 | |
| 20260903100558 | 69 | 273 | 16.0 | 27.0 | 0.00 | 0.00 | 0.00 | 87 | |
| 20260903095522 | 69 | 279 | 18.0 | 26.0 | 0.00 | 0.00 | 0.00 | 87 | |
| 20260903094535 | 68 | 277 | 15.0 | 23.0 | 0.00 | 0.00 | 0.00 | 88 | |
| 20260903093539 | 68 | 257 | 12.0 | 26.0 | 0.00 | 0.00 | 0.00 | 88 | |
| 20260903092527 | 68 | 244 | 17.0 | 26.0 | 0.00 | 0.00 | 0.00 | 89 | |
| 20260903091532 | 67 | 246 | 15.0 | 21.0 | 0.00 | 0.00 | 0.00 | 89 | |
| 20260903090544 | 67 | 251 | 14.0 | 23.0 | 0.00 | 0.00 | 0.00 | 89 | |
| 20260903085527 | 67 | 237 | 16.0 | 26.0 | 0.00 | 0.00 | 0.00 | 89 | |
| 20260903084541 | 67 | 271 | 15.0 | 20.0 | 0.00 | 0.00 | 0.00 | 89 | |
| 20260903083524 | 67 | 250 | 13.0 | 23.0 | 0.00 | 0.00 | 0.00 | 89 | |
| 20260903082528 | 67 | 257 | 12.0 | 24.0 | 0.00 | 0.00 | 0.00 | 89 | |
| 20260903081540 | 67 | 247 | 14.0 | 21.0 | 0.00 | 0.00 | 0.00 | 89 | |
| 20260903080549 | 67 | 278 | 13.0 | 21.0 | 0.00 | 0.00 | 0.00 | 88 | |
| 20260903075532 | 67 | 281 | 13.0 | 21.0 | 0.00 | 0.00 | 0.00 | 88 | |
| 20260903074537 | 67 | 252 | 14.0 | 21.0 | 0.00 | 0.00 | 0.00 | 88 | |
| 20260903073529 | 66 | 267 | 15.0 | 22.0 | 0.00 | 0.00 | 0.00 | 88 | |
| 20260903072534 | 66 | 256 | 13.0 | 21.0 | 0.00 | 0.00 | 0.00 | 88 | |
| 20260903071526 | 66 | 252 | 9.0 | 21.0 | 0.00 | 0.00 | 0.00 | 87 | |
| 20260903070530 | 66 | 241 | 14.0 | 21.0 | 0.00 | 0.00 | 0.00 | 88 | |
| 20260903065541 | 66 | 243 | 13.0 | 21.0 | 0.00 | 0.00 | 0.00 | 88 | |
| 20260903064522 | 66 | 249 | 11.0 | 18.0 | 0.00 | 0.00 | 0.00 | 87 | |
| 20260903063536 | 66 | 240 | 13.0 | 22.0 | 0.00 | 0.00 | 0.00 | 88 | |
| 20260903062541 | 66 | 233 | 12.0 | 19.0 | 0.00 | 0.00 | 0.00 | 88 | |
| 20260903061525 | 66 | 233 | 13.0 | 20.0 | 0.00 | 0.00 | 0.00 | 88 | |
| 20260903060558 | 66 | 223 | 11.0 | 19.0 | 0.00 | 0.00 | 0.00 | 88 | |
| 20260903055529 | 66 | 238 | 11.0 | 19.0 | 0.00 | 0.00 | 0.00 | 87 | |
| 20260903054602 | 66 | 225 | 14.0 | 20.0 | 0.00 | 0.00 | 0.00 | 87 | |
| 20260903053542 | 66 | 233 | 12.0 | 22.0 | 0.00 | 0.00 | 0.00 | 87 | |
| 20260903052535 | 66 | 253 | 11.0 | 18.0 | 0.00 | 0.00 | 0.00 | 87 | |
| 20260903051539 | 66 | 254 | 13.0 | 19.0 | 0.00 | 0.00 | 0.00 | 87 | |
| 20260903050531 | 66 | 212 | 13.0 | 19.0 | 0.00 | 0.00 | 0.00 | 86 | |
| 20260903045535 | 66 | 209 | 12.0 | 18.0 | 0.00 | 0.00 | 0.00 | 86 | |
| 20260903044529 | 67 | 248 | 12.0 | 22.0 | 0.00 | 0.00 | 0.00 | 86 | |
| 20260903043532 | 66 | 264 | 14.0 | 21.0 | 0.00 | 0.00 | 0.00 | 86 | |
| 20260903042540 | 66 | 243 | 13.0 | 24.0 | 0.00 | 0.00 | 0.00 | 86 | |
| 20260903041523 | 66 | 248 | 10.0 | 20.0 | 0.00 | 0.00 | 0.00 | 87 | |
| 20260903040528 | 66 | 219 | 13.0 | 19.0 | 0.00 | 0.00 | 0.00 | 87 | |
| 20260903035522 | 65 | 238 | 11.0 | 15.0 | 0.00 | 0.00 | 0.00 | 87 | |
| 20260903034526 | 65 | 234 | 9.0 | 13.0 | 0.00 | 0.00 | 0.00 | 86 | |
| 20260903033540 | 65 | 225 | 9.0 | 12.0 | 0.00 | 0.00 | 0.00 | 86 | |
| 20260903032523 | 65 | 223 | 9.0 | 14.0 | 0.00 | 0.00 | 0.00 | 85 | |
| 20260903031537 | 65 | 232 | 9.0 | 15.0 | 0.00 | 0.00 | 0.00 | 85 | |
| 20260903030521 | 65 | 217 | 9.0 | 12.0 | 0.00 | 0.00 | 0.00 | 85 | |
| 20260903025530 | 65 | 227 | 10.0 | 14.0 | 0.00 | 0.00 | 0.00 | 84 | |
| 20260903024534 | 66 | 215 | 10.0 | 15.0 | 0.00 | 0.00 | 0.00 | 84 | |
| 20260903023528 | 66 | 200 | 11.0 | 15.0 | 0.00 | 0.00 | 0.00 | 83 | |
| 20260903022531 | 66 | 250 | 9.0 | 15.0 | 0.00 | 0.00 | 0.00 | 83 | |
| 20260903021543 | 66 | 205 | 12.0 | 18.0 | 0.00 | 0.00 | 0.00 | 83 | |
| 20260903020528 | 66 | 227 | 11.0 | 16.0 | 0.00 | 0.00 | 0.00 | 82 | |
| 20260903015540 | 66 | 228 | 13.0 | 18.0 | 0.00 | 0.00 | 0.00 | 81 | |
| 20260903014523 | 66 | 232 | 13.0 | 18.0 | 0.00 | 0.00 | 0.00 | 80 | |
| 20260903013524 | 66 | 200 | 12.0 | 20.0 | 0.00 | 0.00 | 0.00 | 79 | |
| 20260903012536 | 66 | 227 | 10.0 | 18.0 | 0.00 | 0.00 | 0.00 | 78 | |
| 20260903011549 | 67 | 229 | 11.0 | 16.0 | 0.00 | 0.00 | 0.00 | 77 | |
| 20260903010533 | 67 | 230 | 9.0 | 18.0 | 0.00 | 0.00 | 0.00 | 77 | |
| 20260903005537 | 67 | 223 | 12.0 | 18.0 | 0.00 | 0.00 | 0.00 | 77 | |
| 20260903004530 | 67 | 206 | 12.0 | 19.0 | 0.00 | 0.00 | 0.00 | 77 | |
| 20260903003535 | 67 | 221 | 12.0 | 19.0 | 0.00 | 0.00 | 0.00 | 77 | |
| 20260903002545 | 66 | 205 | 13.0 | 22.0 | 0.00 | 0.00 | 0.00 | 77 | |
| 20260903001556 | 66 | 213 | 12.0 | 18.0 | 0.00 | 0.00 | 0.00 | 77 | |
| 20260903000537 | 66 | 212 | 11.0 | 16.0 | 0.00 | 0.00 | 0.00 | 77 | |
| 20260902235530 | 66 | 209 | 10.0 | 15.0 | 0.00 | 0.00 | 0.00 | 78 | |
| 20260902234603 | 65 | 202 | 11.0 | 16.0 | 0.00 | 0.00 | 0.00 | 78 | |
| 20260902233547 | 66 | 196 | 10.0 | 14.0 | 0.00 | 0.00 | 0.00 | 78 | |
| 20260902232557 | 66 | 215 | 11.0 | 15.0 | 0.00 | 0.00 | 0.00 | 78 | |
| 20260902231547 | 66 | 224 | 9.0 | 19.0 | 0.00 | 0.00 | 0.00 | 78 | |
| 20260902230532 | 66 | 216 | 14.0 | 20.0 | 0.00 | 0.00 | 0.00 | 78 | |
| 20260902225545 | 66 | 203 | 12.0 | 19.0 | 0.00 | 0.00 | 0.00 | 78 | |
| 20260902224527 | 65 | 213 | 12.0 | 19.0 | 0.00 | 0.00 | 0.00 | 79 | |
| 20260902223541 | 65 | 200 | 12.0 | 19.0 | 0.00 | 0.00 | 0.00 | 79 | |
| 20260902222525 | 65 | 215 | 10.0 | 15.0 | 0.00 | 0.00 | 0.00 | 79 | |
| 20260902221534 | 66 | 225 | 9.0 | 14.0 | 0.00 | 0.00 | 0.00 | 79 | |
| 20260902220537 | 66 | 232 | 12.0 | 21.0 | 0.00 | 0.00 | 0.00 | 77 | |
| 20260902215522 | 66 | 220 | 12.0 | 16.0 | 0.00 | 0.00 | 0.00 | 75 | |
| 20260902214554 | 66 | 247 | 13.0 | 18.0 | 0.00 | 0.00 | 0.00 | 75 | |
| 20260902213527 | 66 | 232 | 9.0 | 13.0 | 0.00 | 0.00 | 0.00 | 75 | |
| 20260902212530 | 66 | 219 | 9.0 | 13.0 | 0.00 | 0.00 | 0.00 | 75 | |
| 20260902211524 | 66 | 212 | 9.0 | 14.0 | 0.00 | 0.00 | 0.00 | 76 | |
| 20260902210529 | 66 | 207 | 10.0 | 14.0 | 0.00 | 0.00 | 0.00 | 76 | |
| 20260902205558 | 66 | 360 | 11.0 | 16.0 | 0.00 | 0.00 | 0.00 | 75 | |
| 20260902204550 | 66 | 220 | 13.0 | 26.0 | 0.00 | 0.00 | 0.00 | 75 | |
| 20260902203531 | 66 | 221 | 13.0 | 21.0 | 0.00 | 0.00 | 0.00 | 75 | |
| 20260902202525 | 66 | 225 | 9.0 | 12.0 | 0.00 | 0.00 | 0.00 | 75 | |
| 20260902201529 | 66 | 224 | 9.0 | 13.0 | 0.00 | 0.00 | 0.00 | 75 | |
| 20260902200523 | 66 | 230 | 9.0 | 12.0 | 0.00 | 0.00 | 0.00 | 75 | |
| 20260902195526 | 66 | 216 | 8.0 | 12.0 | 0.00 | 0.00 | 0.00 | 75 | |
| 20260902194556 | 65 | 219 | 7.0 | 11.0 | 0.00 | 0.00 | 0.00 | 75 | |
| 20260902193548 | 65 | 218 | 8.0 | 11.0 | 0.00 | 0.00 | 0.00 | 75 | |
| 20260902192531 | 65 | 213 | 6.0 | 8.0 | 0.00 | 0.00 | 0.00 | 76 | |
| 20260902191546 | 65 | 224 | 7.0 | 10.0 | 0.00 | 0.00 | 0.00 | 75 | |
| 20260902190529 | 66 | 223 | 7.0 | 10.0 | 0.00 | 0.00 | 0.00 | 75 | |
| 20260902185533 | 66 | 219 | 7.0 | 11.0 | 0.00 | 0.00 | 0.00 | 74 | |
| 20260902184525 | 67 | 188 | 6.0 | 11.0 | 0.00 | 0.00 | 0.00 | 73 | |
| 20260902183526 | 67 | 232 | 7.0 | 11.0 | 0.00 | 0.00 | 0.00 | 72 | |
| 20260902182540 | 67 | 260 | 7.0 | 10.0 | 0.00 | 0.00 | 0.00 | 72 | |
| 20260902181544 | 67 | 213 | 8.0 | 11.0 | 0.00 | 0.00 | 0.00 | 71 | |
| 20260902180537 | 67 | 240 | 9.0 | 15.0 | 0.00 | 0.00 | 0.00 | 71 | |
| 20260902175550 | 68 | 225 | 9.0 | 16.0 | 0.00 | 0.00 | 0.00 | 71 | |
| 20260902174533 | 68 | 228 | 13.0 | 18.0 | 0.00 | 0.00 | 0.00 | 71 | |
| 20260902173547 | 68 | 228 | 11.0 | 16.0 | 0.00 | 0.00 | 0.00 | 72 | |
| 20260902172532 | 69 | 242 | 9.0 | 13.0 | 0.00 | 0.00 | 0.00 | 73 | |
| 20260902171531 | 69 | 246 | 10.0 | 19.0 | 0.00 | 0.00 | 0.00 | 73 | |
| 20260902170544 | 69 | 246 | 9.0 | 12.0 | 0.00 | 0.00 | 0.00 | 74 | |
| 20260902165537 | 69 | 291 | 9.0 | 15.0 | 0.00 | 0.00 | 0.00 | 74 | |
| 20260902164521 | 69 | 247 | 10.0 | 16.0 | 0.00 | 0.00 | 0.00 | 74 | |
| 20260902163526 | 69 | 224 | 10.0 | 16.0 | 0.00 | 0.00 | 0.00 | 75 | |
| 20260902162539 | 70 | 257 | 8.0 | 18.0 | 0.00 | 0.00 | 0.00 | 74 | |
| 20260902161522 | 70 | 271 | 11.0 | 19.0 | 0.00 | 0.00 | 0.00 | 74 | |
| 20260902160552 | 70 | 277 | 8.0 | 12.0 | 0.00 | 0.00 | 0.00 | 73 | |
| 20260902155543 | 70 | 255 | 9.0 | 15.0 | 0.00 | 0.00 | 0.00 | 72 | |
| 20260902154528 | 71 | 263 | 12.0 | 15.0 | 0.00 | 0.00 | 0.00 | 71 | |
| 20260902153541 | 71 | 287 | 8.0 | 12.0 | 0.00 | 0.00 | 0.00 | 72 | |
| 20260902152525 | 71 | 281 | 10.0 | 15.0 | 0.00 | 0.00 | 0.00 | 72 | |
| 20260902151538 | 71 | 254 | 10.0 | 13.0 | 0.00 | 0.00 | 0.00 | 73 | |
| 20260902150541 | 71 | 287 | 6.0 | 14.0 | 0.00 | 0.00 | 0.00 | 74 | |
| 20260902145550 | 70 | 296 | 9.0 | 13.0 | 0.00 | 0.00 | 0.00 | 76 | |
| 20260902144533 | 70 | 282 | 8.0 | 14.0 | 0.00 | 0.00 | 0.00 | 75 | |
| 20260902143526 | 69 | 270 | 9.0 | 14.0 | 0.00 | 0.00 | 0.00 | 76 | |
| 20260902142530 | 69 | 233 | 11.0 | 18.0 | 0.00 | 0.00 | 0.00 | 75 | |
| 20260902141543 | 70 | 269 | 10.0 | 14.0 | 0.00 | 0.00 | 0.00 | 73 | |
| 20260902140527 | 70 | 225 | 11.0 | 18.0 | 0.00 | 0.00 | 0.00 | 73 | |
| 20260902135540 | 70 | 238 | 9.0 | 13.0 | 0.00 | 0.00 | 0.00 | 72 | |
| 20260902134524 | 71 | 258 | 9.0 | 15.0 | 0.00 | 0.00 | 0.00 | 72 | |
| 20260902133555 | 71 | 237 | 10.0 | 15.0 | 0.00 | 0.00 | 0.00 | 72 | |
| 20260902132537 | 70 | 234 | 11.0 | 15.0 | 0.00 | 0.00 | 0.00 | 73 | |
| 20260902131551 | 70 | 242 | 9.0 | 12.0 | 0.00 | 0.00 | 0.00 | 73 | |
| 20260902130542 | 70 | 262 | 8.0 | 13.0 | 0.00 | 0.00 | 0.00 | 75 | |
| 20260902125527 | 70 | 239 | 10.0 | 15.0 | 0.00 | 0.00 | 0.00 | 75 | |
| 20260902124539 | 70 | 271 | 8.0 | 13.0 | 0.00 | 0.00 | 0.00 | 75 | |
| 20260902123523 | 70 | 200 | 9.0 | 13.0 | 0.00 | 0.00 | 0.00 | 75 |